Location: Famechon
(49.7599°N, 2.0615°E)
Time: 22:31:28
(UTC+00:00)

Cosmos 1741 Rocket - Pass Details

Date: 26 March 2025
Orbit: 758 x 778 km, 74.0° (Epoch: 28 April)

Event Time Altitude Azimuth Distance (km) Brightness Sun altitude
Rises 01:41:53 0° 335° (NNW) 3,234 7.6 -33.3°
Reaches altitude 10° 01:44:15 10° 334° (NNW) 2,307 6.8 -33.1°
Enters shadow 01:46:04 22° 332° (NNW) 1,624 5.9 -33.0°
